(142248) = 1998 XZ71 = 2002 RX100

Discovered at Socorro on 2002-09-05 by LINEAR.

Orbit

Orbit type: Main Belt

Note: WebGL enabled browser required.

epoch2023-09-13.0
epoch JD2460200.5
perihelion date2019-10-16.28967
perihelion JD2458772.78967
argument of perihelion (°)46.12933
ascending node (°)352.39826
inclination (°)2.50960
eccentricity0.2668763
perihelion distance (AU)1.9168153
Tisserand w.r.t. Jupiter3.4
ΔV w.r.t. Earth (km/sec)8.8
semimajor axis (AU)2.6145866
mean anomaly (°)332.84297
mean daily motion (°/day)0.23313060
aphelion distance (AU)3.312
period (years)4.23
P-vector [x]0.78221685
P-vector [y]0.55830663
P-vector [z]0.27646067
Q-vector [x]-0.62297933
Q-vector [y]0.70507858
Q-vector [z]0.33876387
absolute magnitude16.39
phase slope0.15
uncertainty0
referenceMPEC 2024-A48
observations used771
oppositions16
arc length (days)9124
first opposition used1998
last opposition used2023
residual rms (arc-secs)0.63
perturbers coarse indicatorM-v
perturbers precise indicator003Ek
first observation date used1998-12-14.0
last observation date used2023-12-07.0
computer nameMPCLINUX
JD of orbit computation2456819.512171
perihelion JD uncertainty (days)9.9460E-05
argument of perihelion uncertainty (°)9.3005E-05
ascending node uncertainty (°)9.1166E-05
inclination uncertainty (°)6.9076E-06
eccentricity uncertainty 4.3686E-08
perihelion distance uncertainty (AU)1.2041E-07
Minimum Orbit Intersection Distances (in AU)
for orbit epoch: 2460200.5, reference: E2024-A48
Mercury1.5939
Venus1.19592
Earth0.92447
Mars0.45187
Jupiter2.12072
Saturn6.4498
Uranus15.315
Neptune27.3977

Observations

790 total observations over interval: 1998 12 14.34021 – 2023 12 07.123850
These data are available for download (format description).

Date (UT) J2000 RA J2000 Dec Magn Location Ref
1998 12 14.34021 06 06 52.54 +28 11 04.6 18.3   704 – Lincoln Laboratory ETS, New Mexico MPS 3452
1998 12 14.36201 06 06 51.17 +28 11 04.8 19.1   704 – Lincoln Laboratory ETS, New Mexico MPS 3452
1998 12 14.38376 06 06 49.63 +28 11 05.0 19.2   704 – Lincoln Laboratory ETS, New Mexico MPS 3452
1998 12 14.42740 06 06 46.30 +28 11 05.5 18.5   704 – Lincoln Laboratory ETS, New Mexico MPS 3452
1998 12 17.30303 06 03 39.74 +28 11 18.4 19.2   704 – Lincoln Laboratory ETS, New Mexico MPS 3452
1998 12 17.32622 06 03 38.10 +28 11 18.0 19.8   704 – Lincoln Laboratory ETS, New Mexico MPS 3452
1998 12 17.34944 06 03 36.36 +28 11 18.9 19.3   704 – Lincoln Laboratory ETS, New Mexico MPS 3452
1998 12 17.37248 06 03 34.79 +28 11 18.7 19.7   704 – Lincoln Laboratory ETS, New Mexico MPS 3452
2000 04 05.19130 12 42 54.75 -06 00 38.8 20.9 V 691 – Steward Observatory, Kitt Peak-Spacewatch MPS 1099879
2000 04 05.21232 12 42 53.66 -06 00 32.6 21.0 V 691 – Steward Observatory, Kitt Peak-Spacewatch MPS 1099879
2000 04 05.23343 12 42 52.54 -06 00 26.4 20.9 V 691 – Steward Observatory, Kitt Peak-Spacewatch MPS 1099879
2002 09 05.34598 02 19 58.07 +15 27 30.2 19.6   704 – Lincoln Laboratory ETS, New Mexico MPS 61727
2002 09 05.36001 02 19 58.48 +15 27 33.9 19.5   704 – Lincoln Laboratory ETS, New Mexico MPS 61727
2002 09 05.37402 02 19 58.88 +15 27 38.6 19.6   704 – Lincoln Laboratory ETS, New Mexico MPS 61727
2002 09 05.38841 02 19 59.23 +15 27 43.2 20.0   704 – Lincoln Laboratory ETS, New Mexico MPS 61727
2002 09 05.40244 02 19 59.61 +15 27 47.2 19.6   704 – Lincoln Laboratory ETS, New Mexico MPS 61727
2002 09 07.33803 02 20 53.69 +15 36 47.4 19.3   704 – Lincoln Laboratory ETS, New Mexico MPS 61727
2002 09 07.35203 02 20 54.03 +15 36 50.9 19.8   704 – Lincoln Laboratory ETS, New Mexico MPS 61727
2002 09 07.38027 02 20 54.70 +15 36 58.9 19.2   704 – Lincoln Laboratory ETS, New Mexico MPS 61727
2002 09 07.39446 02 20 55.02 +15 37 03.3 19.2   704 – Lincoln Laboratory ETS, New Mexico MPS 61727
2002 10 02.32967 02 21 21.34 +16 43 37.8 18.2   704 – Lincoln Laboratory ETS, New Mexico MPS 63527
2002 10 02.34520 02 21 20.93 +16 43 38.2 19.2   704 – Lincoln Laboratory ETS, New Mexico MPS 63527
2002 10 02.36069 02 21 20.48 +16 43 39.3 19.0   704 – Lincoln Laboratory ETS, New Mexico MPS 63527
2002 10 02.37636 02 21 20.03 +16 43 39.6 18.8   704 – Lincoln Laboratory ETS, New Mexico MPS 63527
2002 10 03.32637 02 20 56.21 +16 44 13.7 18.6   704 – Lincoln Laboratory ETS, New Mexico MPS 63527
2002 10 03.34208 02 20 55.77 +16 44 14.4 18.7   704 – Lincoln Laboratory ETS, New Mexico MPS 63527
2002 10 03.35792 02 20 55.29 +16 44 14.7 18.9   704 – Lincoln Laboratory ETS, New Mexico MPS 63527
2002 10 03.37408 02 20 54.82 +16 44 15.7 18.7   704 – Lincoln Laboratory ETS, New Mexico MPS 63527
2002 10 03.38999 02 20 54.34 +16 44 16.4 18.9   704 – Lincoln Laboratory ETS, New Mexico MPS 63527
2002 10 09.31623 02 17 47.26 +16 44 19.3 18.6   704 – Lincoln Laboratory ETS, New Mexico MPS 63527
2002 10 09.33138 02 17 46.66 +16 44 19.1 18.5   704 – Lincoln Laboratory ETS, New Mexico MPS 63527
2002 10 09.34622 02 17 46.05 +16 44 18.6 18.7   704 – Lincoln Laboratory ETS, New Mexico MPS 63527
2002 10 09.36092 02 17 45.48 +16 44 17.6 18.5   704 – Lincoln Laboratory ETS, New Mexico MPS 63527
2002 10 09.37570 02 17 44.86 +16 44 17.9 18.7   704 – Lincoln Laboratory ETS, New Mexico MPS 63527
2002 10 12.33087 02 15 50.06 +16 42 10.0 18.5   704 – Lincoln Laboratory ETS, New Mexico MPS 63527
2002 10 12.34764 02 15 49.34 +16 42 09.4 18.6   704 – Lincoln Laboratory ETS, New Mexico MPS 63527
2002 10 12.36449 02 15 48.52 +16 42 07.8 19.6   704 – Lincoln Laboratory ETS, New Mexico MPS 63527
2002 10 12.38126 02 15 47.86 +16 42 06.9 18.7   704 – Lincoln Laboratory ETS, New Mexico MPS 63527
2002 10 12.39809 02 15 47.10 +16 42 06.8 19.0   704 – Lincoln Laboratory ETS, New Mexico MPS 63527
2002 10 26.46214 02 04 36.43 +16 15 47.0 19.6   608 – Haleakala-AMOS MPS 65918
2002 10 26.47290 02 04 35.82 +16 15 46.5 19.8   608 – Haleakala-AMOS MPS 65918
2002 10 26.48381 02 04 35.26 +16 15 43.8 19.1   608 – Haleakala-AMOS MPS 65918
2002 11 03.25324 01 58 03.18 +15 53 30.7 18.0   704 – Lincoln Laboratory ETS, New Mexico MPS 65918
2002 11 03.27033 01 58 02.29 +15 53 27.8 17.9   704 – Lincoln Laboratory ETS, New Mexico MPS 65918
2002 11 03.30433 01 58 00.52 +15 53 21.8 18.5   704 – Lincoln Laboratory ETS, New Mexico MPS 65918
2002 11 03.32130 01 57 59.63 +15 53 18.0 18.4   704 – Lincoln Laboratory ETS, New Mexico MPS 65918
2002 11 05.14144 01 56 33.24 +15 47 49.5 17.7 R 699 – Lowell Observatory-LONEOS MPS 65918
2002 11 05.15992 01 56 32.30 +15 47 45.9   699 – Lowell Observatory-LONEOS MPS 65918
2002 11 05.17839 01 56 31.37 +15 47 42.9   699 – Lowell Observatory-LONEOS MPS 65918
2002 11 05.19689 01 56 30.50 +15 47 39.6   699 – Lowell Observatory-LONEOS MPS 65918
2002 11 08.24204 01 54 12.10 +15 38 33.6 18.1   704 – Lincoln Laboratory ETS, New Mexico MPS 65918
2002 11 08.25956 01 54 11.29 +15 38 30.8 18.1   704 – Lincoln Laboratory ETS, New Mexico MPS 65918
2002 11 08.27693 01 54 10.49 +15 38 27.5 18.1   704 – Lincoln Laboratory ETS, New Mexico MPS 65918
2002 11 08.29428 01 54 09.67 +15 38 24.5 18.2   704 – Lincoln Laboratory ETS, New Mexico MPS 65918
2002 11 08.31185 01 54 08.82 +15 38 21.6 18.4   704 – Lincoln Laboratory ETS, New Mexico MPS 65918
2002 11 12.23888 01 51 28.33 +15 27 04.9 18.4   704 – Lincoln Laboratory ETS, New Mexico MPS 65918
2002 11 12.25609 01 51 27.55 +15 27 01.0 18.5   704 – Lincoln Laboratory ETS, New Mexico MPS 65918
2002 11 12.27334 01 51 26.87 +15 26 58.9 18.8   704 – Lincoln Laboratory ETS, New Mexico MPS 65918
2002 11 12.29070 01 51 26.13 +15 26 55.8 18.7   704 – Lincoln Laboratory ETS, New Mexico MPS 65918
2002 11 12.30803 01 51 25.43 +15 26 52.5 18.4   704 – Lincoln Laboratory ETS, New Mexico MPS 65918
2002 11 20.14213 01 47 20.05 +15 07 50.1 18.7   644 – Palomar Mountain/NEAT MPS 67970
2002 11 20.21048 01 47 18.18 +15 07 42.1 18.7   644 – Palomar Mountain/NEAT MPS 67970
2002 11 20.27277 01 47 16.50 +15 07 34.5 19.1   644 – Palomar Mountain/NEAT MPS 67970
2002 12 11.15178 01 46 26.51 +14 56 15.6 19.1   704 – Lincoln Laboratory ETS, New Mexico MPS 67970
2002 12 11.16704 01 46 26.76 +14 56 16.1 19.7   704 – Lincoln Laboratory ETS, New Mexico MPS 67970
2002 12 11.18226 01 46 27.04 +14 56 18.7 19.8   704 – Lincoln Laboratory ETS, New Mexico MPS 67970
2002 12 11.19742 01 46 27.31 +14 56 18.8 20.2   704 – Lincoln Laboratory ETS, New Mexico MPS 67970
2002 12 11.21270 01 46 27.60 +14 56 21.3 19.5   704 – Lincoln Laboratory ETS, New Mexico MPS 67970
2002 12 31.16821 01 59 26.39 +15 49 14.2 19.9   704 – Lincoln Laboratory ETS, New Mexico MPS 69921
2002 12 31.18437 01 59 27.39 +15 49 18.5 19.7   704 – Lincoln Laboratory ETS, New Mexico MPS 69921
2002 12 31.19983 01 59 28.28 +15 49 20.7 19.5   704 – Lincoln Laboratory ETS, New Mexico MPS 69921
2002 12 31.21492 01 59 29.04 +15 49 25.0 20.0   704 – Lincoln Laboratory ETS, New Mexico MPS 69921
2003 01 05.16066 02 04 28.70 +16 10 43.1 19.8   704 – Lincoln Laboratory ETS, New Mexico MPS 69921
2003 01 05.17584 02 04 29.60 +16 10 46.8 20.7   704 – Lincoln Laboratory ETS, New Mexico MPS 69921
2003 01 05.19119 02 04 30.58 +16 10 51.2 20.2   704 – Lincoln Laboratory ETS, New Mexico MPS 69921
2003 01 05.20663 02 04 31.54 +16 10 55.5 19.8   704 – Lincoln Laboratory ETS, New Mexico MPS 69921
2004 03 15.29757 11 48 47.27 +00 57 37.0 20.7 V 691 – Steward Observatory, Kitt Peak-Spacewatch MPS 110312
2004 03 15.32458 11 48 45.79 +00 57 45.1 20.9 V 691 – Steward Observatory, Kitt Peak-Spacewatch MPS 110312
2004 03 15.35220 11 48 44.27 +00 57 53.3 21.0 V 691 – Steward Observatory, Kitt Peak-Spacewatch MPS 110312
2004 03 23.30239 11 41 44.51 +01 37 41.7 20.6 V 691 – Steward Observatory, Kitt Peak-Spacewatch MPS 110312
2004 03 23.33057 11 41 43.01 +01 37 50.1 20.8 V 691 – Steward Observatory, Kitt Peak-Spacewatch MPS 110312
2004 03 23.35952 11 41 41.49 +01 37 58.6 20.5 V 691 – Steward Observatory, Kitt Peak-Spacewatch MPS 110312
2004 04 13.13685 11 26 24.64 +03 03 51.7 21.5 V 691 – Steward Observatory, Kitt Peak-Spacewatch MPS 110737
